Weather in Golovshchino

Russia / Lipetsk Oblast     52°36′54″N   39°53′50″E
temp.,
°C
wind,
m/s
gust,
m/s
humid.,
%
clouds,
%
prec.,
mm/h
press.,
hPa
HPBL,
m
21 january, fri
fri2100:00−11s71690100 0.0 1013390
03:00−9s71593100 0.3 1011424
06:00−8s71694100 0.6 1008455
09:00−8sse81794100 2.0 1007554
12:00−6sse81695100 1.9 1005728
15:00−3s8159499 2.9 1003714
18:00−2sw51097100 1.6 1003739
21:00−6ssw5119121 1.9 1005262
22 january, sat
sat2200:00−8s6139394 0.0 1006335
03:00−9s6139598 0.0 1007290
06:00−10s5129598 0.0 1007232
09:00−12s4109665 0.1 1009175
12:00−8s389577 0.0 1010256
15:00−7sse4795100 0.1 1012305
18:00−11sse389777 0.1 1014113
21:00−11s379798 0.1 101595
23 january, sun
sun2300:00−12s3597100 0.0 101778
03:00−17se2210078 0.0 101919
06:00−15se229998 0.1 102136
09:00−17ese2210099 0.1 102424
12:00−10e2396100 0.0 1025104
15:00−8ne3595100 0.0 1026151
18:00−10ne41094100 0.0 1028187
21:00−8nne5119394 0.0 1029252
24 january, mon
mon2400:00−7ne61295100 0.3 1029326
03:00−6ne61195100 0.7 1029346
06:00−4ene61192100 0.2 1029484
09:00−7ene51290100 0.2 1030319
12:00−6ene4989100 0.0 1031363
15:00−6ene5989100 0.0 1031367
18:00−11ene38955 0.0 1032106
21:00−13e37967 0.0 103294
25 january, tue
tue2500:00−14ene3596100 0.0 103159
03:00−12e3795100 0.0 1030120
06:00−17ene229862 0.0 103023
09:00−16e249798 0.0 102959
12:00−10se379270 0.0 1027196
15:00−8se379425 0.0 1026229
18:00−14se359975 0.0 102557
21:00−11sse379777 0.1 1024136